| time (UTC) | temp F | wind direction | speed MPH | gust MPH | rain 1hr in | rain 24hr in | rain mn in | humidity % | barometer mb |
| 20260903110003 | 51 | 165 | 2.0 | 7.0 | 0.00 | 0.12 | 0.00 | 87 | 1006.7 |
| 20260903105403 | 51 | 163 | 2.0 | 7.0 | 0.00 | 0.12 | 0.00 | 87 | 1006.7 |
| 20260903104503 | 51 | 172 | 3.0 | 8.0 | 0.00 | 0.12 | 0.00 | 86 | 1006.6 |
| 20260903103603 | 51 | 173 | 3.0 | 7.0 | 0.00 | 0.12 | 0.00 | 87 | 1006.3 |
| 20260903102704 | 51 | 163 | 3.0 | 7.0 | 0.00 | 0.12 | 0.00 | 86 | 1006.6 |
| 20260903101803 | 51 | 165 | 3.0 | 8.0 | 0.00 | 0.12 | 0.00 | 86 | 1006.3 |
| 20260903100903 | 51 | 165 | 2.0 | 5.0 | 0.00 | 0.12 | 0.00 | 87 | 1006.3 |
| 20260903100004 | 51 | 166 | 3.0 | 11.0 | 0.00 | 0.12 | 0.00 | 87 | 1006.2 |
| 20260903095403 | 51 | 166 | 3.0 | 11.0 | 0.00 | 0.12 | 0.00 | 88 | 1006.0 |
| 20260903094718 | 51 | 158 | 2.0 | 6.0 | 0.00 | 0.12 | 0.00 | 88 | 1006.0 |
| 20260903093603 | 51 | 155 | 2.0 | 5.0 | 0.00 | 0.12 | 0.00 | 88 | 1005.8 |
| 20260903092703 | 51 | 152 | 2.0 | 6.0 | 0.00 | 0.12 | 0.00 | 88 | 1005.9 |
| 20260903092018 | 51 | 156 | 3.0 | 6.0 | 0.00 | 0.12 | 0.00 | 88 | 1006.0 |
| 20260903090903 | 51 | 166 | 3.0 | 5.0 | 0.00 | 0.12 | 0.00 | 88 | 1005.6 |
| 20260903090004 | 51 | 164 | 3.0 | 6.0 | 0.00 | 0.12 | 0.00 | 87 | 1005.9 |
| 20260903085403 | 51 | 165 | 2.0 | 6.0 | 0.00 | 0.12 | 0.00 | 87 | 1006.0 |
| 20260903084717 | 51 | 167 | 2.0 | 4.0 | 0.00 | 0.12 | 0.00 | 87 | 1005.8 |
| 20260903083604 | 51 | 166 | 3.0 | 7.0 | 0.00 | 0.12 | 0.00 | 87 | 1005.8 |
| 20260903082703 | 51 | 166 | 3.0 | 8.0 | 0.00 | 0.12 | 0.00 | 87 | 1005.9 |
| 20260903082017 | 51 | 158 | 3.0 | 9.0 | 0.00 | 0.12 | 0.00 | 88 | 1005.8 |
| 20260903080903 | 51 | 160 | 3.0 | 8.0 | 0.00 | 0.12 | 0.00 | 89 | 1005.7 |
| 20260903080003 | 51 | 158 | 3.0 | 10.0 | 0.00 | 0.12 | 0.00 | 90 | 1005.4 |
| 20260903075618 | 51 | 158 | 3.0 | 11.0 | 0.00 | 0.12 | 0.00 | 89 | 1005.7 |
| 20260903074503 | 51 | 158 | 3.0 | 7.0 | 0.00 | 0.12 | 0.00 | 90 | 1005.7 |
| 20260903073603 | 51 | 161 | 2.0 | 7.0 | 0.00 | 0.12 | 0.00 | 90 | 1005.3 |
| 20260903072703 | 51 | 121 | 2.0 | 6.0 | 0.00 | 0.12 | 0.00 | 89 | 1005.6 |
| 20260903071803 | 51 | 144 | 2.0 | 6.0 | 0.00 | 0.12 | 0.00 | 90 | 1005.6 |
| 20260903070903 | 51 | 139 | 2.0 | 8.0 | 0.00 | 0.12 | 0.00 | 90 | 1005.6 |
| 20260903070218 | 51 | 145 | 3.0 | 9.0 | 0.00 | 0.12 | 0.00 | 90 | 1005.6 |
| 20260903065617 | 51 | 146 | 3.0 | 9.0 | 0.00 | 0.12 | 0.12 | 91 | 1005.1 |
| 20260903064503 | 50 | 148 | 3.0 | 10.0 | 0.00 | 0.12 | 0.12 | 92 | 1005.2 |
| 20260903063604 | 49 | 142 | 2.0 | 10.0 | 0.00 | 0.12 | 0.12 | 92 | 1005.2 |
| 20260903062703 | 49 | 128 | 2.0 | 6.0 | 0.00 | 0.12 | 0.12 | 91 | 1005.2 |
| 20260903061803 | 49 | 118 | 2.0 | 6.0 | 0.00 | 0.12 | 0.12 | 91 | 1005.2 |
| 20260903061118 | 49 | 114 | 3.0 | 9.0 | 0.00 | 0.12 | 0.12 | 92 | 1005.2 |
| 20260903060003 | 49 | 120 | 3.0 | 9.0 | 0.00 | 0.12 | 0.12 | 92 | 1005.2 |
| 20260903055403 | 49 | 124 | 3.0 | 9.0 | 0.00 | 0.12 | 0.12 | 91 | 1005.3 |
| 20260903054717 | 49 | 122 | 3.0 | 8.0 | 0.00 | 0.12 | 0.12 | 91 | 1005.1 |
| 20260903053818 | 49 | 120 | 3.0 | 9.0 | 0.00 | 0.12 | 0.12 | 91 | 1005.0 |
| 20260903052703 | 49 | 116 | 3.0 | 13.0 | 0.00 | 0.12 | 0.12 | 92 | 1005.1 |
| 20260903051803 | 49 | 120 | 3.0 | 12.0 | 0.00 | 0.12 | 0.12 | 92 | 1005.2 |
| 20260903050903 | 49 | 114 | 2.0 | 8.0 | 0.00 | 0.12 | 0.12 | 93 | 1005.0 |
| 20260903050003 | 49 | 112 | 2.0 | 5.0 | 0.00 | 0.12 | 0.12 | 92 | 1005.1 |
| 20260903045403 | 49 | 112 | 2.0 | 6.0 | 0.00 | 0.12 | 0.12 | 93 | 1005.0 |
| 20260903044718 | 49 | 116 | 2.0 | 7.0 | 0.00 | 0.12 | 0.12 | 92 | 1005.3 |
| 20260903043603 | 49 | 97 | 2.0 | 11.0 | 0.00 | 0.12 | 0.12 | 93 | 1005.0 |
| 20260903042703 | 49 | 93 | 2.0 | 6.0 | 0.00 | 0.12 | 0.12 | 93 | 1005.0 |
| 20260903041803 | 49 | 84 | 1.0 | 5.0 | 0.00 | 0.12 | 0.12 | 92 | 1004.8 |
| 20260903040903 | 49 | 54 | 0.0 | 4.0 | 0.00 | 0.12 | 0.12 | 91 | 1005.1 |
| 20260903040003 | 49 | 79 | 0.0 | 4.0 | 0.00 | 0.12 | 0.12 | 91 | 1005.0 |
| 20260903035404 | 49 | 75 | 0.0 | 2.0 | 0.00 | 0.12 | 0.12 | 91 | 1005.1 |
| 20260903034503 | 49 | 70 | 1.0 | 5.0 | 0.00 | 0.12 | 0.12 | 91 | 1004.9 |
| 20260903033603 | 50 | 53 | 0.0 | 2.0 | 0.00 | 0.12 | 0.12 | 91 | 1005.0 |
| 20260903032703 | 50 | 62 | 0.0 | 2.0 | 0.00 | 0.12 | 0.12 | 91 | 1005.0 |
| 20260903031803 | 50 | 45 | 1.0 | 4.0 | 0.00 | 0.12 | 0.12 | 90 | 1004.9 |
| 20260903030903 | 50 | 58 | 1.0 | 3.0 | 0.00 | 0.12 | 0.12 | 90 | 1004.8 |
| 20260903030004 | 50 | 34 | 1.0 | 3.0 | 0.00 | 0.13 | 0.12 | 89 | 1004.9 |
| 20260903025403 | 50 | 69 | 1.0 | 5.0 | 0.00 | 0.13 | 0.12 | 90 | 1004.7 |
| 20260903024717 | 50 | 67 | 1.0 | 4.0 | 0.00 | 0.13 | 0.12 | 89 | 1004.8 |
| 20260903023603 | 50 | 349 | 0.0 | 2.0 | 0.00 | 0.13 | 0.12 | 89 | 1004.7 |
| 20260903022703 | 51 | 351 | 1.0 | 2.0 | 0.00 | 0.13 | 0.12 | 89 | 1004.7 |
| 20260903021803 | 51 | 23 | 1.0 | 3.0 | 0.00 | 0.13 | 0.12 | 89 | 1004.8 |
| 20260903020903 | 51 | 55 | 1.0 | 4.0 | 0.00 | 0.13 | 0.12 | 89 | 1005.1 |
| 20260903020218 | 51 | 56 | 0.0 | 4.0 | 0.00 | 0.13 | 0.12 | 89 | 1005.2 |
| 20260903015404 | 51 | 98 | 0.0 | 2.0 | 0.00 | 0.13 | 0.12 | 88 | 1004.9 |
| 20260903014503 | 51 | 111 | 0.0 | 3.0 | 0.02 | 0.13 | 0.12 | 88 | 1005.3 |
| 20260903013603 | 51 | 169 | 0.0 | 2.0 | 0.12 | 0.13 | 0.12 | 87 | 1004.8 |
| 20260903012703 | 51 | 27 | 1.0 | 4.0 | 0.12 | 0.13 | 0.12 | 86 | 1004.7 |
| 20260903011803 | 51 | 19 | 1.0 | 3.0 | 0.12 | 0.13 | 0.12 | 85 | 1004.9 |
| 20260903010903 | 51 | 156 | 0.0 | 2.0 | 0.12 | 0.13 | 0.12 | 85 | 1005.1 |
| 20260903010003 | 52 | 153 | 1.0 | 3.0 | 0.12 | 0.13 | 0.12 | 81 | 1005.3 |
| 20260903005403 | 53 | 150 | 1.0 | 6.0 | 0.12 | 0.13 | 0.12 | 80 | 1005.1 |
| 20260903004503 | 56 | 185 | 5.0 | 25.0 | 0.11 | 0.11 | 0.11 | 73 | 1005.4 |
| 20260903003603 | 58 | 179 | 3.0 | 8.0 | 0.00 | 0.01 | 0.00 | 68 | 1005.2 |
| 20260903002917 | 58 | 166 | 3.0 | 7.0 | 0.00 | 0.01 | 0.00 | 67 | 1004.2 |
| 20260903001803 | 59 | 160 | 4.0 | 10.0 | 0.00 | 0.01 | 0.00 | 67 | 1004.3 |
| 20260903000903 | 60 | 164 | 5.0 | 23.0 | 0.00 | 0.01 | 0.00 | 65 | 1004.3 |
| 20260903000218 | 62 | 145 | 5.0 | 23.0 | 0.00 | 0.01 | 0.00 | 59 | 1004.4 |
| 20260902235403 | 64 | 158 | 5.0 | 17.0 | 0.00 | 0.01 | 0.00 | 54 | 1004.7 |
| 20260902234503 | 65 | 168 | 5.0 | 14.0 | 0.00 | 0.01 | 0.00 | 52 | 1004.2 |
| 20260902233604 | 64 | 168 | 5.0 | 14.0 | 0.00 | 0.01 | 0.00 | 54 | 1004.2 |
| 20260902232703 | 64 | 168 | 5.0 | 11.0 | 0.00 | 0.01 | 0.00 | 51 | 1004.1 |
| 20260902232018 | 64 | 174 | 5.0 | 18.0 | 0.00 | 0.01 | 0.00 | 53 | 1003.9 |
| 20260902231117 | 65 | 169 | 6.0 | 18.0 | 0.00 | 0.01 | 0.00 | 51 | 1004.3 |
| 20260902230217 | 65 | 172 | 5.0 | 12.0 | 0.00 | 0.01 | 0.00 | 50 | 1004.1 |
| 20260902225403 | 66 | 168 | 4.0 | 13.0 | 0.00 | 0.01 | 0.00 | 51 | 1004.0 |
| 20260902224503 | 66 | 171 | 5.0 | 12.0 | 0.00 | 0.01 | 0.00 | 52 | 1004.2 |
| 20260902223603 | 66 | 176 | 4.0 | 12.0 | 0.00 | 0.01 | 0.00 | 52 | 1004.2 |
| 20260902222705 | 66 | 168 | 5.0 | 13.0 | 0.00 | 0.01 | 0.00 | 51 | 1004.5 |
| 20260902221803 | 67 | 171 | 5.0 | 13.0 | 0.00 | 0.01 | 0.00 | 49 | 1004.3 |
| 20260902220903 | 66 | 172 | 6.0 | 17.0 | 0.00 | 0.01 | 0.00 | 50 | 1004.4 |
| 20260902220003 | 66 | 160 | 4.0 | 11.0 | 0.00 | 0.01 | 0.00 | 50 | 1004.3 |
| 20260902215403 | 67 | 160 | 5.0 | 14.0 | 0.00 | 0.01 | 0.00 | 48 | 1004.3 |
| 20260902214503 | 69 | 160 | 5.0 | 15.0 | 0.00 | 0.01 | 0.00 | 47 | 1004.8 |
| 20260902213603 | 69 | 168 | 6.0 | 16.0 | 0.00 | 0.01 | 0.00 | 47 | 1004.8 |
| 20260902212704 | 68 | 165 | 6.0 | 16.0 | 0.00 | 0.01 | 0.00 | 51 | 1004.9 |
| 20260902211803 | 66 | 171 | 5.0 | 16.0 | 0.00 | 0.01 | 0.00 | 52 | 1005.1 |
| 20260902211117 | 67 | 174 | 5.0 | 10.0 | 0.00 | 0.01 | 0.00 | 49 | 1005.2 |
| 20260902210005 | 67 | 167 | 5.0 | 15.0 | 0.00 | 0.01 | 0.00 | 49 | 1004.9 |
| 20260902205403 | 66 | 167 | 5.0 | 13.0 | 0.00 | 0.01 | 0.00 | 52 | 1005.1 |
| 20260902204503 | 65 | 163 | 5.0 | 10.0 | 0.00 | 0.01 | 0.00 | 53 | 1005.0 |
| 20260902203603 | 66 | 168 | 5.0 | 19.0 | 0.00 | 0.01 | 0.00 | 51 | 1005.3 |
| 20260902202918 | 66 | 170 | 6.0 | 19.0 | 0.00 | 0.01 | 0.00 | 52 | 1005.2 |
| 20260902201803 | 65 | 171 | 6.0 | 17.0 | 0.00 | 0.01 | 0.00 | 55 | 1005.4 |
| 20260902200903 | 64 | 171 | 6.0 | 15.0 | 0.00 | 0.01 | 0.00 | 53 | 1005.1 |
| 20260902200003 | 63 | 164 | 5.0 | 16.0 | 0.00 | 0.01 | 0.00 | 55 | 1005.4 |
| 20260902195403 | 63 | 168 | 6.0 | 16.0 | 0.00 | 0.01 | 0.00 | 57 | 1005.1 |
| 20260902194503 | 63 | 171 | 5.0 | 12.0 | 0.00 | 0.01 | 0.00 | 56 | 1005.4 |
| 20260902193603 | 64 | 168 | 5.0 | 11.0 | 0.00 | 0.01 | 0.00 | 56 | 1005.3 |
| 20260902192703 | 63 | 172 | 5.0 | 17.0 | 0.00 | 0.01 | 0.00 | 60 | 1005.6 |
| 20260902191803 | 63 | 169 | 5.0 | 13.0 | 0.00 | 0.01 | 0.00 | 57 | 1005.4 |
| 20260902190903 | 62 | 168 | 5.0 | 12.0 | 0.00 | 0.01 | 0.00 | 59 | 1005.4 |
| 20260902190003 | 62 | 168 | 5.0 | 13.0 | 0.00 | 0.01 | 0.00 | 61 | 1005.4 |
| 20260902185403 | 62 | 173 | 6.0 | 13.0 | 0.00 | 0.01 | 0.00 | 57 | 1005.4 |
| 20260902184503 | 62 | 166 | 5.0 | 15.0 | 0.00 | 0.01 | 0.00 | 60 | 1005.7 |
| 20260902183603 | 62 | 167 | 4.0 | 11.0 | 0.00 | 0.01 | 0.00 | 56 | 1005.7 |
| 20260902182917 | 62 | 170 | 4.0 | 11.0 | 0.00 | 0.01 | 0.00 | 59 | 1005.6 |
| 20260902181803 | 62 | 173 | 4.0 | 7.0 | 0.00 | 0.01 | 0.00 | 59 | 1005.7 |
| 20260902181118 | 62 | 175 | 4.0 | 10.0 | 0.00 | 0.01 | 0.00 | 59 | 1005.8 |
| 20260902180005 | 62 | 171 | 5.0 | 11.0 | 0.00 | 0.01 | 0.00 | 58 | 1005.9 |
| 20260902175403 | 62 | 173 | 4.0 | 9.0 | 0.00 | 0.01 | 0.00 | 59 | 1005.8 |
| 20260902174718 | 62 | 170 | 4.0 | 9.0 | 0.00 | 0.01 | 0.00 | 59 | 1005.8 |
| 20260902173605 | 61 | 171 | 4.0 | 9.0 | 0.00 | 0.01 | 0.00 | 60 | 1005.8 |
| 20260902172703 | 61 | 169 | 4.0 | 10.0 | 0.00 | 0.01 | 0.00 | 60 | 1006.0 |
| 20260902171803 | 62 | 171 | 5.0 | 13.0 | 0.00 | 0.01 | 0.00 | 58 | 1005.7 |
| 20260902170904 | 61 | 166 | 5.0 | 13.0 | 0.00 | 0.01 | 0.00 | 62 | 1005.8 |
| 20260902170003 | 60 | 171 | 5.0 | 9.0 | 0.00 | 0.01 | 0.00 | 62 | 1006.0 |
| 20260902165403 | 60 | 170 | 5.0 | 15.0 | 0.00 | 0.01 | 0.00 | 60 | 1006.1 |
| 20260902164503 | 61 | 166 | 6.0 | 16.0 | 0.00 | 0.01 | 0.00 | 60 | 1005.9 |
| 20260902163817 | 61 | 166 | 6.0 | 14.0 | 0.00 | 0.01 | 0.00 | 59 | 1006.2 |
| 20260902162703 | 61 | 167 | 6.0 | 16.0 | 0.00 | 0.01 | 0.00 | 60 | 1006.2 |
| 20260902161803 | 62 | 170 | 4.0 | 9.0 | 0.00 | 0.01 | 0.00 | 61 | 1005.9 |
| 20260902160903 | 62 | 169 | 4.0 | 11.0 | 0.00 | 0.01 | 0.00 | 64 | 1006.0 |
| 20260902160218 | 61 | 170 | 4.0 | 11.0 | 0.00 | 0.01 | 0.00 | 65 | 1006.0 |
| 20260902155403 | 60 | 172 | 5.0 | 9.0 | 0.00 | 0.01 | 0.00 | 66 | 1006.2 |
| 20260902154503 | 60 | 172 | 5.0 | 13.0 | 0.00 | 0.01 | 0.00 | 66 | 1005.7 |
| 20260902153603 | 59 | 171 | 5.0 | 10.0 | 0.00 | 0.01 | 0.00 | 69 | 1006.0 |
| 20260902152703 | 58 | 171 | 5.0 | 14.0 | 0.00 | 0.01 | 0.00 | 68 | 1005.8 |
| 20260902151803 | 57 | 168 | 4.0 | 13.0 | 0.00 | 0.01 | 0.00 | 70 | 1005.9 |
| 20260902150903 | 56 | 170 | 5.0 | 13.0 | 0.00 | 0.01 | 0.00 | 70 | 1005.8 |
| 20260902150218 | 56 | 171 | 4.0 | 12.0 | 0.00 | 0.01 | 0.00 | 71 | 1005.6 |
| 20260902145403 | 55 | 167 | 4.0 | 9.0 | 0.00 | 0.01 | 0.00 | 72 | 1005.9 |
| 20260902144503 | 54 | 166 | 4.0 | 10.0 | 0.00 | 0.01 | 0.00 | 73 | 1005.9 |
| 20260902143603 | 54 | 165 | 5.0 | 13.0 | 0.00 | 0.01 | 0.00 | 75 | 1005.9 |
| 20260902142705 | 53 | 166 | 3.0 | 9.0 | 0.00 | 0.01 | 0.00 | 77 | 1006.0 |
| 20260902141803 | 53 | 156 | 3.0 | 9.0 | 0.00 | 0.01 | 0.00 | 77 | 1005.8 |
| 20260902141118 | 53 | 162 | 4.0 | 10.0 | 0.00 | 0.01 | 0.00 | 76 | 1006.1 |
| 20260902140004 | 52 | 157 | 3.0 | 11.0 | 0.00 | 0.01 | 0.00 | 78 | 1006.1 |
| 20260902135404 | 52 | 152 | 3.0 | 7.0 | 0.00 | 0.01 | 0.00 | 78 | 1006.0 |
| 20260902134503 | 52 | 156 | 2.0 | 7.0 | 0.00 | 0.01 | 0.00 | 79 | 1005.9 |
| 20260902133603 | 52 | 159 | 2.0 | 4.0 | 0.00 | 0.01 | 0.00 | 79 | 1006.2 |
| 20260902132705 | 52 | 154 | 2.0 | 4.0 | 0.00 | 0.01 | 0.00 | 78 | 1006.1 |
| 20260902132019 | 52 | 155 | 2.0 | 4.0 | 0.00 | 0.01 | 0.00 | 78 | 1006.1 |
| 20260902130903 | 52 | 165 | 3.0 | 7.0 | 0.00 | 0.01 | 0.00 | 78 | 1006.0 |
| 20260902130004 | 52 | 163 | 2.0 | 6.0 | 0.00 | 0.01 | 0.00 | 79 | 1006.5 |
| 20260902125403 | 52 | 159 | 2.0 | 6.0 | 0.00 | 0.01 | 0.00 | 79 | 1006.3 |
| 20260902124504 | 52 | 155 | 2.0 | 9.0 | 0.00 | 0.01 | 0.00 | 79 | 1006.2 |
| 20260902123605 | 52 | 141 | 3.0 | 8.0 | 0.00 | 0.01 | 0.00 | 79 | 1006.3 |
| 20260902122919 | 52 | 141 | 3.0 | 8.0 | 0.00 | 0.01 | 0.00 | 80 | 1006.3 |
| 20260902121804 | 52 | 149 | 3.0 | 6.0 | 0.00 | 0.01 | 0.00 | 80 | 1006.5 |
| 20260902120903 | 52 | 143 | 2.0 | 7.0 | 0.00 | 0.01 | 0.00 | 80 | 1006.3 |
| 20260902120004 | 52 | 147 | 1.0 | 5.0 | 0.00 | 0.01 | 0.00 | 79 | 1006.6 |
| 20260902115403 | 52 | 135 | 2.0 | 5.0 | 0.00 | 0.01 | 0.00 | 79 | 1006.6 |
| 20260902114503 | 53 | 130 | 2.0 | 4.0 | 0.00 | 0.01 | 0.00 | 79 | 1006.5 |
| 20260902113604 | 53 | 126 | 2.0 | 7.0 | 0.00 | 0.01 | 0.00 | 78 | 1006.7 |
| 20260902112703 | 53 | 138 | 2.0 | 8.0 | 0.00 | 0.01 | 0.00 | 78 | 1006.6 |
| 20260902112018 | 54 | 145 | 3.0 | 8.0 | 0.00 | 0.01 | 0.00 | 77 | 1006.7 |
| 20260902110903 | 54 | 151 | 2.0 | 8.0 | 0.00 | 0.01 | 0.00 | 76 | 1006.6 |